Time,TemperatureF,DewpointF,PressureIn,WindDirection,WindDirectionDegrees,WindSpeedMPH,WindSpeedGustMPH,Humidity,HourlyPrecipIn,Conditions,Clouds,dailyrainin,SoftwareType,DateUTC
2013-04-03 19:00:00,42.2,11.4,30.01,NW,305,14.0,15.0,28,0.00,,,0.00,Wunderground v.1.15,2013-04-03 23:00:00,
2013-04-03 19:05:00,42.0,11.2,30.01,WNW,290,16.0,17.0,28,0.00,,,0.00,Wunderground v.1.15,2013-04-03 23:05:00,
2013-04-03 19:10:00,41.8,11.8,30.01,NW,311,16.0,16.0,29,0.00,,,0.00,Wunderground v.1.15,2013-04-03 23:10:00,
2013-04-03 19:15:00,41.6,11.6,30.02,NNW,335,15.0,17.0,29,0.00,,,0.00,Wunderground v.1.15,2013-04-03 23:15:00,
2013-04-03 19:20:00,41.4,10.7,30.02,NW,311,16.0,25.0,28,0.00,,,0.00,Wunderground v.1.15,2013-04-03 23:20:00,
2013-04-03 19:25:00,41.3,11.4,30.02,NNW,330,18.0,25.0,29,0.00,,,0.00,Wunderground v.1.15,2013-04-03 23:25:00,
2013-04-03 19:30:00,41.2,11.3,30.03,WNW,296,17.0,25.0,29,0.00,,,0.00,Wunderground v.1.15,2013-04-03 23:30:00,
2013-04-03 19:35:00,41.0,11.1,30.03,WNW,296,16.0,25.0,29,0.00,,,0.00,Wunderground v.1.15,2013-04-03 23:35:00,
2013-04-03 19:40:00,40.9,11.0,30.03,NW,323,15.0,15.0,29,0.00,,,0.00,Wunderground v.1.15,2013-04-03 23:40:00,
2013-04-03 19:50:00,40.5,11.4,30.03,WNW,303,17.0,25.0,30,0.00,,,0.00,Wunderground v.1.15,2013-04-03 23:50:00,
2013-04-03 19:55:00,40.3,12.0,30.04,WNW,296,16.0,25.0,31,0.00,,,0.00,Wunderground v.1.15,2013-04-03 23:55:00,
2013-04-03 20:00:00,40.2,11.9,30.04,NW,311,16.0,16.0,31,0.00,,,0.00,Wunderground v.1.15,2013-04-04 00:00:00,
2013-04-03 20:05:00,40.0,11.8,30.05,NW,323,15.0,25.0,31,0.00,,,0.00,Wunderground v.1.15,2013-04-04 00:05:00,
2013-04-03 20:10:00,40.0,12.5,30.05,WNW,298,14.0,25.0,32,0.00,,,0.00,Wunderground v.1.15,2013-04-04 00:10:00,
2013-04-03 20:15:00,39.8,12.3,30.06,NW,312,14.0,25.0,32,0.00,,,0.00,Wunderground v.1.15,2013-04-04 00:15:00,
2013-04-03 20:20:00,39.6,12.1,30.06,NW,308,16.0,25.0,32,0.00,,,0.00,Wunderground v.1.15,2013-04-04 00:20:00,
2013-04-03 20:25:00,39.4,12.6,30.07,North,355,18.0,25.0,33,0.00,,,0.00,Wunderground v.1.15,2013-04-04 00:25:00,
2013-04-03 20:30:00,39.3,12.6,30.07,NW,309,16.0,16.0,33,0.00,,,0.00,Wunderground v.1.15,2013-04-04 00:30:00,
2013-04-03 20:35:00,39.1,13.1,30.07,NNW,346,16.0,25.0,34,0.00,,,0.00,Wunderground v.1.15,2013-04-04 00:35:00,
2013-04-03 20:40:00,38.9,12.9,30.07,WNW,303,16.0,16.0,34,0.00,,,0.00,Wunderground v.1.15,2013-04-04 00:40:00,
2013-04-03 20:50:00,38.6,13.3,30.08,NNW,331,16.0,16.0,35,0.00,,,0.00,Wunderground v.1.15,2013-04-04 00:50:00,
2013-04-03 20:55:00,38.5,13.2,30.08,NW,321,16.0,25.0,35,0.00,,,0.00,Wunderground v.1.15,2013-04-04 00:55:00,
2013-04-03 21:00:00,38.3,13.6,30.09,WNW,302,16.0,16.0,36,0.00,,,0.00,Wunderground v.1.15,2013-04-04 01:00:00,
2013-04-03 21:05:00,38.2,13.6,30.09,WNW,300,17.0,19.0,36,0.00,,,0.00,Wunderground v.1.15,2013-04-04 01:05:00,
2013-04-03 21:10:00,38.1,13.5,30.10,NW,307,17.0,25.0,36,0.00,,,0.00,Wunderground v.1.15,2013-04-04 01:10:00,
2013-04-03 21:15:00,37.9,13.9,30.10,North,355,16.0,25.0,37,0.00,,,0.00,Wunderground v.1.15,2013-04-04 01:15:00,
2013-04-03 21:25:00,37.7,13.7,30.10,NW,318,13.0,25.0,37,0.00,,,0.00,Wunderground v.1.15,2013-04-04 01:25:00,